MEV-1

Last updated on Thu Nov 21 2024 00:02:44 GMT+0000 (Coordinated Universal Time)

1 44625U 19067B 24325.27688567 -.00000201 00000+0 00000+0 0 9991 2 44625 0.0721 90.0645 0001228 212.6274 189.3003 1.00270133 18622
UTC large
Height (km)
Speed (km/s)
/
Latitude / Longitude
Inclination (degrees)
Orbital Period (minutes)
Azimuth
Elevation
Range (km)
Doppler Factor

Next 0 passes for location: London (51.5072 / 0.1276)

Sorry there are no passes over London.